{"data":{"norad_id":52649,"intl_designator":"2022-052BD","name":"STARLINK-3868","alt_names":[],"object_type":"PAYLOAD","status":"ACTIVE","operator":null,"country":"US","launch_date":"2022-05-14","launch_site_code":"AFETR","launch_vehicle":null,"mission":null,"orbit_class":"UNKNOWN","rcs_meters":null,"size_class":null,"mass_kg":null,"dimensions":null,"purposes":["comms"],"wikipedia_slug":null,"has_3d_model":false,"image_url":null,"decayed_at":null,"tle_current":{"epoch":"2026-09-20T03:32:42.010080Z","epoch_age_seconds":96968,"freshness":"FRESH","line1":"1 52649U 22052BD  26263.14770845  .00001662  00000+0  65301-4 0  9995","line2":"2 52649  53.1592  92.4513 0001162  89.1164 270.9971 15.31711642240682","mean_motion":15.31711642,"eccentricity":0.0001162,"inclination_deg":53.1592,"raan_deg":92.4513,"arg_perigee_deg":89.1164,"mean_anomaly_deg":270.9971,"bstar":6.5301e-5,"rev_number":24068,"period_min":94.012473400003,"perigee_km":469.90945577502,"apogee_km":471.5011267235,"semimajor_km":6848.8422912493,"source":"CELESTRAK","updated_at":"2026-09-20T09:00:40.099584Z"}}}